Regional Weather Roundup
Issued by NWS Cleveland, OH

Home | Current Version | Previous Version | Text Only | Print | Product List | Glossary On
Versions: 1 2 3 4 5 6 7 8 9 10 11 12 13 14 15 16 17 18 19 20 21 22 23 24 25 26 27 28 29 30 31 32 33 34 35 36 37 38 39 40 41 42 43 44 45 46 47 48 49 50
347
ASUS41 KCLE 081812
RWRCLE
OHIO REGIONAL WEATHER ROUNDUP
NATIONAL WEATHER SERVICE WILMINGTON, OH
100 PM EST MON FEB 08 2016

NOTE: "FAIR" INDICATES FEW OR NO CLOUDS BELOW 12,000 FEET WITH NO
SIGNIFICANT WEATHER AND/OR OBSTRUCTIONS TO VISIBILITY.

OHZ001>008-015>018-024>027-034-035-043-044-081900-
   NORTHWEST OHIO

CITY           SKY/WX    TMP DP  RH WIND       PRES   REMARKS
DEFIANCE       PTSUNNY   41  28  60 W6        29.59F
FINDLAY        PTSUNNY   43  27  53 NW7       29.58F
TOLEDO EXPRESS CLOUDY    40  28  62 W8        29.58F
TOLEDO EXEC    PTSUNNY   41  28  60 NW8       29.59F
LIMA           CLOUDY    40  31  70 W9        29.59F
$$

OHZ009>014-019>023-028>033-038-089-081900-
   NORTHEAST OHIO

CITY           SKY/WX    TMP DP  RH WIND       PRES   REMARKS
CLE-HOPKINS    SNOW      33  32  96 CALM      29.59F VSB 1/2
CLE-LAKEFRONT  SNOW      33  32  96 CALM      29.57F VSB 1/4
CUY CO. ARPT   SNOW      34  32  93 CALM      29.58F VSB 1/2
LORAIN-ELYRIA  SNOW      33  31  92 NW3       29.57F VSB 1/2
ASHTABULA      CLOUDY    42  27  55 S21G29    29.57F
AKRON-CANTON   LGT SNOW  33  31  92 S5        29.55F VSB 3/4 WCI  29
WOOSTER        LGT SNOW  33  32  96 SW3       29.56F FOG
MANSFIELD      LGT SNOW  33  31  92 NW9       29.56F FOG     WCI  25
YOUNGSTOWN     LGT SNOW  36  31  82 S8        29.57F
$$

OHZ042-051>053-060>062-070>072-077>081-081900-
  SOUTHWEST OHIO

CITY           SKY/WX    TMP DP  RH WIND       PRES   REMARKS
CINC-COVINGTON CLOUDY    39  32  76 NW5       29.63F
CINC-LUNKEN    CLOUDY    39  32  76 W8        29.66F
HAMILTON       CLOUDY    41  32  70 W8        29.64F
DAYTON         FLURRIES  39  31  72 NW12      29.61F
WRIGHT-PAT AFB LGT RAIN  37  35  92 NW5       29.61F
DAYTON GENERAL FLURRIES  36  32  85 W9        29.62F
WILMINGTON     CLOUDY    33  32  96 W12       29.61F FOG     WCI  24
$$

OHZ036-037-039>041-045>050-054>059-063>069-073>076-082>088-081900-
  CENTRAL AND SOUTHEAST OHIO

CITY           SKY/WX    TMP DP  RH WIND       PRES   REMARKS
COLUMBUS       LGT SNOW  38  38 100 W5        29.59F FOG
OSU AIRPORT    CLOUDY    39  34  82 CALM      29.58F
BOLTON FIELD   LGT RAIN  37  34  87 CALM      29.60F
RICKENBACK AFB DRIZZLE   37  34  89 W8        29.59F
NEWARK         LGT RAIN  37  32  82 W5        29.59F
MARION         CLOUDY    39  30  70 NW8       29.58F
LANCASTER      CLOUDY    36  33  89 SW5       29.61F
ZANESVILLE     FLURRIES  36  33  89 SW9       29.59F
NEW PHILLY     CLOUDY    33  32  96 SE6       29.58F FOG     WCI  28
$$




USA.gov is the U.S. government's official web portal to all federal, state and local government web resources and services.